TAP129 EGPH-LPPR

Flight info

Callsign TAP129
Flight time 2h 27m
Altitude 38000
Route GOSAM DCT TRN DCT DEGOS/M081F380 DCT LASNO T9 BEGAS/N0456F390 DCT ELTEP/N0399F230 T328 ASPOR
Aircraft A339/H-SADE1E2E3GHIJ3J5M1P2RWXY/LB2D1

Departure

Time 2026-04-25 08:47
Airport Edinburgh Airport (EGPH)

Arrival

Time 2026-04-25 11:15
Airport Francisco de Sá Carneiro Airport (LPPR)
Time Latitude Longitude Altitude Speed Heading
2026-04-25 08:14 55.94954 -3.36018 114 ft 0 kts 254°
2026-04-25 08:35 55.94956 -3.36009 110 ft 2 kts 254°
2026-04-25 08:35 55.94960 -3.35983 110 ft 3 kts 258°
2026-04-25 08:36 55.94964 -3.35945 110 ft 3 kts 277°
2026-04-25 08:36 55.94960 -3.35906 110 ft 3 kts 297°
2026-04-25 08:36 55.94949 -3.35874 110 ft 3 kts 311°
2026-04-25 08:36 55.94935 -3.35847 110 ft 3 kts 317°
2026-04-25 08:37 55.94926 -3.35832 109 ft 0 kts 313°
2026-04-25 08:39 55.94926 -3.35833 114 ft 1 kts 313°
2026-04-25 08:40 55.94946 -3.35855 111 ft 5 kts 332°
2026-04-25 08:40 55.94981 -3.35856 112 ft 6 kts
2026-04-25 08:40 55.95033 -3.35830 111 ft 10 kts 359°
2026-04-25 08:40 55.95068 -3.35907 111 ft 8 kts 297°
2026-04-25 08:41 55.95094 -3.36007 111 ft 10 kts 291°
2026-04-25 08:41 55.95119 -3.36137 112 ft 12 kts 288°
2026-04-25 08:41 55.95129 -3.36291 113 ft 13 kts 253°
2026-04-25 08:41 55.95085 -3.36423 114 ft 12 kts 239°
2026-04-25 08:42 55.95040 -3.36557 113 ft 14 kts 239°
2026-04-25 08:42 55.94986 -3.36716 114 ft 16 kts 239°
2026-04-25 08:42 55.94925 -3.36893 110 ft 17 kts 238°
2026-04-25 08:42 55.94869 -3.37063 113 ft 15 kts 239°
2026-04-25 08:43 55.94811 -3.37233 113 ft 16 kts 239°
2026-04-25 08:43 55.94757 -3.37393 116 ft 14 kts 239°
2026-04-25 08:43 55.94705 -3.37548 117 ft 15 kts 239°
2026-04-25 08:43 55.94652 -3.37704 120 ft 15 kts 238°
2026-04-25 08:44 55.94594 -3.37873 117 ft 17 kts 238°
2026-04-25 08:44 55.94536 -3.38045 118 ft 14 kts 238°
2026-04-25 08:44 55.94479 -3.38211 116 ft 17 kts 238°
2026-04-25 08:44 55.94420 -3.38385 119 ft 16 kts 239°
2026-04-25 08:45 55.94360 -3.38560 122 ft 16 kts 239°
2026-04-25 08:45 55.94307 -3.38719 124 ft 15 kts 239°
2026-04-25 08:45 55.94293 -3.38867 124 ft 12 kts 296°
2026-04-25 08:45 55.94362 -3.38944 125 ft 13 kts 330°
2026-04-25 08:46 55.94432 -3.38914 126 ft 9 kts 64°
2026-04-25 08:46 55.94458 -3.38834 123 ft 0 kts 57°
2026-04-25 08:46 55.94499 -3.38715 121 ft 47 kts 58°
2026-04-25 08:46 55.94836 -3.37728 120 ft 135 kts 59°
2026-04-25 08:47 55.95453 -3.36043 411 ft 171 kts 57°
2026-04-25 08:47 55.96094 -3.34292 1522 ft 167 kts 60°
2026-04-25 08:47 55.96809 -3.32603 2367 ft 181 kts 46°
2026-04-25 08:47 55.97842 -3.31078 2870 ft 206 kts 36°
2026-04-25 08:48 55.99066 -3.29495 3350 ft 228 kts 35°
2026-04-25 08:48 56.00449 -3.27870 3757 ft 248 kts 22°
2026-04-25 08:48 56.02178 -3.27322 4215 ft 259 kts 354°
2026-04-25 08:48 56.03875 -3.28281 4966 ft 257 kts 327°
2026-04-25 08:49 56.05137 -3.30510 5629 ft 260 kts 302°
2026-04-25 08:49 56.05743 -3.33569 5913 ft 264 kts 276°
2026-04-25 08:49 56.05560 -3.36819 6001 ft 266 kts 252°
2026-04-25 08:49 56.04603 -3.39596 6006 ft 268 kts 229°
2026-04-25 08:50 56.03282 -3.41969 5993 ft 269 kts 225°
2026-04-25 08:50 56.02054 -3.44476 6002 ft 267 kts 238°
2026-04-25 08:50 56.01297 -3.47470 5992 ft 264 kts 255°
2026-04-25 08:50 56.00849 -3.50670 6001 ft 265 kts 257°
2026-04-25 08:51 56.00413 -3.53867 5987 ft 265 kts 257°
2026-04-25 08:51 55.99970 -3.57056 5991 ft 264 kts 257°
2026-04-25 08:51 55.99520 -3.60239 5987 ft 264 kts 257°
2026-04-25 08:51 55.99060 -3.63418 5994 ft 265 kts 257°
2026-04-25 08:52 55.98596 -3.66602 5984 ft 264 kts 257°
2026-04-25 08:52 55.98129 -3.69778 5988 ft 264 kts 257°
2026-04-25 08:52 55.97663 -3.72946 5980 ft 264 kts 256°
2026-04-25 08:52 55.97194 -3.76124 5978 ft 265 kts 257°
2026-04-25 08:53 55.96727 -3.79295 5973 ft 263 kts 257°
2026-04-25 08:53 55.96263 -3.82453 5979 ft 264 kts 256°
2026-04-25 08:53 55.95793 -3.85637 5971 ft 265 kts 257°
2026-04-25 08:53 55.95330 -3.88766 5974 ft 264 kts 256°
2026-04-25 08:54 55.94853 -3.91978 5973 ft 265 kts 256°
2026-04-25 08:54 55.94382 -3.95134 6090 ft 269 kts 256°
2026-04-25 08:54 55.93851 -3.98338 6802 ft 270 kts 251°
2026-04-25 08:54 55.92961 -4.01294 7563 ft 273 kts 236°
2026-04-25 08:55 55.91690 -4.03853 8251 ft 279 kts 225°
2026-04-25 08:55 55.90187 -4.06075 8966 ft 283 kts 219°
2026-04-25 08:55 55.88569 -4.08133 9668 ft 288 kts 216°
2026-04-25 08:55 55.86901 -4.10150 10365 ft 291 kts 216°
2026-04-25 08:56 55.85177 -4.12229 10682 ft 310 kts 216°
2026-04-25 08:56 55.83344 -4.14469 10863 ft 330 kts 216°
2026-04-25 08:56 55.81419 -4.16844 11242 ft 342 kts 216°
2026-04-25 08:56 55.79458 -4.19276 11866 ft 345 kts 216°
2026-04-25 08:57 55.77483 -4.21733 12492 ft 349 kts 216°
2026-04-25 08:57 55.75485 -4.24220 13115 ft 352 kts 216°
2026-04-25 08:57 55.73469 -4.26731 13732 ft 356 kts 216°
2026-04-25 08:57 55.71430 -4.29264 14316 ft 359 kts 216°
2026-04-25 08:58 55.69372 -4.31818 14910 ft 361 kts 216°
2026-04-25 08:58 55.67335 -4.34342 15475 ft 364 kts 216°
2026-04-25 08:58 55.65227 -4.36951 16034 ft 366 kts 216°
2026-04-25 08:58 55.63133 -4.39541 16625 ft 368 kts 216°
2026-04-25 08:59 55.61060 -4.42098 17200 ft 370 kts 215°
2026-04-25 08:59 55.58943 -4.44708 17784 ft 372 kts 215°
2026-04-25 08:59 55.56815 -4.47327 18381 ft 374 kts 215°
2026-04-25 08:59 55.54672 -4.49960 18902 ft 376 kts 214°
2026-04-25 09:00 55.52511 -4.52611 19410 ft 379 kts 214°
2026-04-25 09:00 55.50332 -4.55274 19917 ft 382 kts 214°
2026-04-25 09:00 55.48141 -4.57954 20425 ft 385 kts 214°
2026-04-25 09:00 55.45932 -4.60654 20939 ft 388 kts 214°
2026-04-25 09:01 55.43708 -4.63370 21443 ft 391 kts 214°
2026-04-25 09:01 55.41458 -4.66109 21971 ft 394 kts 214°
2026-04-25 09:01 55.39196 -4.68860 22477 ft 396 kts 214°
2026-04-25 09:01 55.36919 -4.71625 23012 ft 400 kts 214°
2026-04-25 09:02 55.34622 -4.74411 23521 ft 403 kts 214°
2026-04-25 09:02 55.32331 -4.77258 23991 ft 406 kts 217°
2026-04-25 09:02 55.30213 -4.80561 24451 ft 408 kts 224°
2026-04-25 09:02 55.28333 -4.84223 24915 ft 410 kts 228°
2026-04-25 09:03 55.26446 -4.87993 25350 ft 412 kts 227°
2026-04-25 09:03 55.24543 -4.91765 25801 ft 414 kts 227°
2026-04-25 09:03 55.22624 -4.95547 26242 ft 416 kts 227°
2026-04-25 09:03 55.20689 -4.99342 26673 ft 419 kts 227°
2026-04-25 09:04 55.18740 -5.03153 27107 ft 421 kts 227°
2026-04-25 09:04 55.16783 -5.06973 27537 ft 423 kts 226°
2026-04-25 09:04 55.14813 -5.10811 27941 ft 425 kts 226°
2026-04-25 09:04 55.12825 -5.14678 28334 ft 428 kts 226°
2026-04-25 09:05 55.10832 -5.18551 28736 ft 430 kts 226°
2026-04-25 09:05 55.08826 -5.22443 29132 ft 433 kts 226°
2026-04-25 09:05 55.06804 -5.26358 29484 ft 435 kts 226°
2026-04-25 09:05 55.04773 -5.30284 29860 ft 438 kts 226°
2026-04-25 09:06 55.02725 -5.34238 30228 ft 440 kts 226°
2026-04-25 09:06 55.00664 -5.38208 30579 ft 442 kts 225°
2026-04-25 09:06 54.98594 -5.42191 30937 ft 444 kts 225°
2026-04-25 09:06 54.96515 -5.46184 31292 ft 446 kts 225°
2026-04-25 09:07 54.94429 -5.50185 31643 ft 447 kts 225°
2026-04-25 09:07 54.92334 -5.54194 31991 ft 449 kts 225°
2026-04-25 09:07 54.90227 -5.58220 32329 ft 451 kts 225°
2026-04-25 09:07 54.88137 -5.62207 32656 ft 452 kts 225°
2026-04-25 09:08 54.86013 -5.66254 32932 ft 454 kts 225°
2026-04-25 09:08 54.83880 -5.70310 33191 ft 456 kts 225°
2026-04-25 09:08 54.81731 -5.74387 33426 ft 457 kts 225°
2026-04-25 09:08 54.79583 -5.78459 33626 ft 458 kts 225°
2026-04-25 09:09 54.77430 -5.82533 33838 ft 459 kts 225°
2026-04-25 09:09 54.75276 -5.86602 34090 ft 458 kts 225°
2026-04-25 09:09 54.73124 -5.90660 34326 ft 457 kts 225°
2026-04-25 09:09 54.70971 -5.94713 34527 ft 457 kts 225°
2026-04-25 09:10 54.68818 -5.98757 34714 ft 458 kts 225°
2026-04-25 09:10 54.66661 -6.02804 34926 ft 457 kts 225°
2026-04-25 09:10 54.64503 -6.06844 35107 ft 457 kts 225°
2026-04-25 09:10 54.62347 -6.10872 35300 ft 457 kts 225°
2026-04-25 09:11 54.58028 -6.18923 35678 ft 457 kts 225°
2026-04-25 09:11 54.53732 -6.26906 35599 ft 455 kts 225°
2026-04-25 09:12 54.51574 -6.30905 35728 ft 457 kts 225°
2026-04-25 09:12 54.49410 -6.34906 35898 ft 457 kts 225°
2026-04-25 09:12 54.47245 -6.38906 36089 ft 457 kts 225°
2026-04-25 09:12 54.45080 -6.42899 36271 ft 457 kts 225°
2026-04-25 09:13 54.42912 -6.46893 36451 ft 457 kts 225°
2026-04-25 09:13 54.40747 -6.50874 36645 ft 457 kts 225°
2026-04-25 09:13 54.38576 -6.54856 36820 ft 456 kts 225°
2026-04-25 09:13 54.36407 -6.58827 36988 ft 457 kts 225°
2026-04-25 09:14 54.34229 -6.62810 37163 ft 457 kts 225°
2026-04-25 09:14 54.32055 -6.66778 37346 ft 456 kts 225°
2026-04-25 09:14 54.29907 -6.70694 37534 ft 456 kts 225°
2026-04-25 09:14 54.27736 -6.74644 37707 ft 456 kts 225°
2026-04-25 09:15 54.25561 -6.78596 37897 ft 456 kts 225°
2026-04-25 09:15 54.23386 -6.82541 38073 ft 455 kts 226°
2026-04-25 09:15 54.21121 -6.86338 38188 ft 456 kts 219°
2026-04-25 09:15 54.18529 -6.89472 38177 ft 458 kts 210°
2026-04-25 09:16 54.12591 -6.93398 38187 ft 461 kts 193°
2026-04-25 09:16 54.07384 -6.95502 38185 ft 463 kts 194°
2026-04-25 09:17 53.97985 -6.99452 38178 ft 461 kts 194°
2026-04-25 09:17 53.94913 -7.00748 38181 ft 450 kts 195°
2026-04-25 09:18 53.91889 -7.02021 38182 ft 447 kts 195°
2026-04-25 09:18 53.85813 -7.04574 38182 ft 451 kts 195°
2026-04-25 09:19 53.79732 -7.07117 38187 ft 450 kts 195°
2026-04-25 09:19 53.73652 -7.09650 38189 ft 450 kts 195°
2026-04-25 09:20 53.67564 -7.12180 38183 ft 450 kts 195°
2026-04-25 09:20 53.61481 -7.14702 38182 ft 450 kts 195°
2026-04-25 09:21 53.55398 -7.17216 38186 ft 450 kts 195°
2026-04-25 09:21 53.49313 -7.19723 38175 ft 450 kts 195°
2026-04-25 09:22 53.43260 -7.22210 38178 ft 450 kts 195°
2026-04-25 09:22 53.37171 -7.24703 38178 ft 451 kts 195°
2026-04-25 09:23 53.31079 -7.27190 38183 ft 451 kts 195°
2026-04-25 09:23 53.24979 -7.29673 38177 ft 451 kts 195°
2026-04-25 09:24 53.18886 -7.32146 38179 ft 450 kts 195°
2026-04-25 09:24 53.12790 -7.34613 38179 ft 450 kts 195°
2026-04-25 09:25 53.06703 -7.37068 38182 ft 450 kts 195°
2026-04-25 09:25 53.00618 -7.39516 38174 ft 450 kts 195°
2026-04-25 09:26 52.94560 -7.41946 38174 ft 449 kts 195°
2026-04-25 09:26 52.88471 -7.44381 38176 ft 449 kts 195°
2026-04-25 09:27 52.82390 -7.46806 38180 ft 449 kts 195°
2026-04-25 09:27 52.76309 -7.49222 38179 ft 449 kts 195°
2026-04-25 09:28 52.70231 -7.51632 38176 ft 449 kts 195°
2026-04-25 09:28 52.64186 -7.54022 38166 ft 449 kts 195°
2026-04-25 09:29 52.58110 -7.56417 38171 ft 449 kts 195°
2026-04-25 09:29 52.52027 -7.58809 38174 ft 449 kts 195°
2026-04-25 09:30 52.45942 -7.61194 38171 ft 450 kts 195°
2026-04-25 09:30 52.39851 -7.63573 38172 ft 450 kts 195°
2026-04-25 09:31 52.33751 -7.65951 38177 ft 450 kts 195°
2026-04-25 09:31 52.27655 -7.68320 38173 ft 450 kts 195°
2026-04-25 09:32 52.21598 -7.70666 38178 ft 451 kts 195°
2026-04-25 09:32 52.15488 -7.73028 38175 ft 451 kts 195°
2026-04-25 09:33 52.09379 -7.75381 38172 ft 451 kts 195°
2026-04-25 09:33 52.03266 -7.77730 38171 ft 451 kts 195°
2026-04-25 09:34 51.97151 -7.80072 38171 ft 451 kts 195°
2026-04-25 09:34 51.91034 -7.82409 38168 ft 451 kts 195°
2026-04-25 09:35 51.84917 -7.84740 38169 ft 451 kts 195°
2026-04-25 09:35 51.78800 -7.87064 38166 ft 451 kts 195°
2026-04-25 09:36 51.72723 -7.89366 38161 ft 451 kts 195°
2026-04-25 09:36 51.66606 -7.91677 38163 ft 452 kts 195°
2026-04-25 09:37 51.60483 -7.93984 38163 ft 452 kts 195°
2026-04-25 09:37 51.54354 -7.96287 38166 ft 452 kts 195°
2026-04-25 09:38 51.48221 -7.98585 38168 ft 452 kts 195°
2026-04-25 09:38 51.42085 -8.00877 38175 ft 452 kts 195°
2026-04-25 09:39 51.35948 -8.03164 38171 ft 453 kts 195°
2026-04-25 09:39 51.29808 -8.05445 38174 ft 453 kts 195°
2026-04-25 09:40 51.20595 -8.08857 38172 ft 453 kts 195°
2026-04-25 09:40 51.14451 -8.11125 38175 ft 453 kts 195°
2026-04-25 09:41 51.08308 -8.13386 38176 ft 453 kts 195°
2026-04-25 09:41 51.02199 -8.15628 38187 ft 453 kts 195°
2026-04-25 09:42 50.96050 -8.17878 38191 ft 453 kts 195°
2026-04-25 09:42 50.89901 -8.20123 38171 ft 453 kts 195°
2026-04-25 09:43 50.83763 -8.22358 38173 ft 453 kts 195°
2026-04-25 09:43 50.77628 -8.24585 38198 ft 452 kts 195°
2026-04-25 09:44 50.71493 -8.26807 38188 ft 452 kts 195°
2026-04-25 09:44 50.65353 -8.29024 38189 ft 452 kts 195°
2026-04-25 09:45 50.59226 -8.31231 38190 ft 452 kts 195°
2026-04-25 09:45 50.53093 -8.33434 38188 ft 452 kts 195°
2026-04-25 09:46 50.46965 -8.35629 38183 ft 451 kts 195°
2026-04-25 09:46 50.40875 -8.37806 38191 ft 451 kts 195°
2026-04-25 09:47 50.34713 -8.40001 38189 ft 451 kts 195°
2026-04-25 09:47 50.28634 -8.42162 38192 ft 451 kts 195°
2026-04-25 09:48 50.22511 -8.44332 38193 ft 451 kts 195°
2026-04-25 09:48 50.16389 -8.46497 38196 ft 451 kts 195°
2026-04-25 09:49 50.10267 -8.48656 38194 ft 451 kts 195°
2026-04-25 09:49 50.04144 -8.50809 38193 ft 451 kts 196°
2026-04-25 09:50 49.98021 -8.52957 38195 ft 450 kts 196°
2026-04-25 09:50 49.91902 -8.55097 38196 ft 450 kts 196°
2026-04-25 09:51 49.85782 -8.57233 38197 ft 450 kts 196°
2026-04-25 09:51 49.79709 -8.59346 38195 ft 450 kts 196°
2026-04-25 09:52 49.73594 -8.61469 38198 ft 450 kts 196°
2026-04-25 09:52 49.67478 -8.63587 38197 ft 450 kts 196°
2026-04-25 09:53 49.61353 -8.65702 38200 ft 450 kts 196°
2026-04-25 09:53 49.55242 -8.67807 38202 ft 450 kts 196°
2026-04-25 09:54 49.49121 -8.69911 38199 ft 450 kts 196°
2026-04-25 09:54 49.43007 -8.72006 38202 ft 450 kts 196°
2026-04-25 09:55 49.36892 -8.74097 38202 ft 450 kts 196°
2026-04-25 09:55 49.30777 -8.76182 38204 ft 450 kts 196°
2026-04-25 09:56 49.24694 -8.78251 38202 ft 450 kts 196°
2026-04-25 09:56 49.18572 -8.80328 38203 ft 451 kts 196°
2026-04-25 09:57 49.12446 -8.82401 38207 ft 451 kts 196°
2026-04-25 09:57 49.06314 -8.84471 38204 ft 451 kts 196°
2026-04-25 09:58 49.00182 -8.86536 38210 ft 451 kts 196°
2026-04-25 09:58 48.94048 -8.88596 38205 ft 452 kts 196°
2026-04-25 09:59 48.87897 -8.90657 38206 ft 452 kts 196°
2026-04-25 09:59 48.81740 -8.92715 38209 ft 453 kts 196°
2026-04-25 10:00 48.75575 -8.94771 38206 ft 454 kts 196°
2026-04-25 10:00 48.69446 -8.96812 38205 ft 454 kts 196°
2026-04-25 10:01 48.63267 -8.98850 38211 ft 455 kts 195°
2026-04-25 10:01 48.56952 -9.00032 38212 ft 460 kts 186°
2026-04-25 10:02 48.50527 -9.00035 38207 ft 462 kts 184°
2026-04-25 10:02 48.45179 -9.00010 38216 ft 463 kts 184°
2026-04-25 10:03 48.38744 -8.99999 38208 ft 462 kts 184°
2026-04-25 10:03 48.32316 -8.99998 38212 ft 462 kts 184°
2026-04-25 10:04 48.25887 -8.99998 38215 ft 462 kts 184°
2026-04-25 10:04 48.19471 -8.99999 38212 ft 460 kts 184°
2026-04-25 10:05 48.13063 -8.99998 38211 ft 460 kts 184°
2026-04-25 10:05 48.06664 -8.99999 38210 ft 459 kts 184°
2026-04-25 10:06 48.00275 -8.99999 38204 ft 459 kts 184°
2026-04-25 10:06 47.93917 -8.99999 38204 ft 459 kts 184°
2026-04-25 10:07 47.87486 -8.99999 38199 ft 459 kts 184°
2026-04-25 10:07 47.81131 -9.00000 38210 ft 459 kts 184°
2026-04-25 10:08 47.74738 -8.99999 38210 ft 460 kts 184°
2026-04-25 10:08 47.68339 -9.00000 38215 ft 460 kts 184°
2026-04-25 10:09 47.61941 -8.99999 38213 ft 460 kts 184°
2026-04-25 10:09 47.55544 -9.00000 38217 ft 459 kts 183°
2026-04-25 10:10 47.49153 -8.99999 38216 ft 459 kts 183°
2026-04-25 10:10 47.42759 -8.99999 38220 ft 459 kts 183°
2026-04-25 10:11 47.36366 -8.99999 38222 ft 459 kts 183°
2026-04-25 10:11 47.29972 -9.00000 38219 ft 459 kts 183°
2026-04-25 10:12 47.23582 -8.99999 38219 ft 459 kts 183°
2026-04-25 10:13 47.13988 -9.00000 38218 ft 459 kts 183°
2026-04-25 10:13 47.07631 -9.00001 38220 ft 460 kts 183°
2026-04-25 10:14 47.01229 -9.00001 38220 ft 459 kts 183°
2026-04-25 10:14 46.94832 -9.00002 38226 ft 459 kts 183°
2026-04-25 10:15 46.88437 -9.00002 38225 ft 459 kts 182°
2026-04-25 10:15 46.82040 -9.00002 38227 ft 459 kts 182°
2026-04-25 10:16 46.75647 -9.00002 38223 ft 459 kts 182°
2026-04-25 10:16 46.69265 -9.00002 38228 ft 459 kts 182°
2026-04-25 10:17 46.62884 -9.00003 38224 ft 458 kts 182°
2026-04-25 10:17 46.56543 -9.00003 38224 ft 458 kts 182°
2026-04-25 10:18 46.50172 -9.00003 38221 ft 458 kts 182°
2026-04-25 10:18 46.43797 -9.00003 38226 ft 458 kts 182°
2026-04-25 10:19 46.37425 -9.00003 38228 ft 457 kts 182°
2026-04-25 10:19 46.31060 -9.00003 38229 ft 457 kts 182°
2026-04-25 10:20 46.24692 -9.00002 38226 ft 457 kts 182°
2026-04-25 10:20 46.18336 -9.00002 38227 ft 456 kts 182°
2026-04-25 10:21 46.11993 -9.00003 38224 ft 456 kts 182°
2026-04-25 10:21 46.05681 -9.00003 38226 ft 456 kts 182°
2026-04-25 10:22 45.99338 -9.00002 38225 ft 455 kts 182°
2026-04-25 10:22 45.93005 -9.00003 38230 ft 455 kts 182°
2026-04-25 10:23 45.86672 -9.00003 38222 ft 455 kts 182°
2026-04-25 10:23 45.80349 -9.00003 38228 ft 454 kts 182°
2026-04-25 10:24 45.74029 -9.00003 38223 ft 454 kts 182°
2026-04-25 10:24 45.67712 -9.00003 38226 ft 454 kts 182°
2026-04-25 10:25 45.61446 -9.00003 38226 ft 453 kts 182°
2026-04-25 10:25 45.55144 -9.00003 38230 ft 453 kts 182°
2026-04-25 10:26 45.49863 -9.00003 38224 ft 452 kts 182°
2026-04-25 10:26 45.43568 -9.00003 38227 ft 452 kts 182°
2026-04-25 10:27 45.37278 -9.00003 38221 ft 452 kts 182°
2026-04-25 10:27 45.30994 -9.00003 38223 ft 451 kts 182°
2026-04-25 10:28 45.24713 -9.00003 38219 ft 451 kts 182°
2026-04-25 10:28 45.18436 -9.00003 38225 ft 451 kts 182°
2026-04-25 10:29 45.12160 -9.00003 38223 ft 451 kts 182°
2026-04-25 10:29 45.05883 -8.99996 38224 ft 451 kts 181°
2026-04-25 10:30 44.99680 -8.99110 38224 ft 453 kts 171°
2026-04-25 10:30 44.93597 -8.96693 38223 ft 456 kts 161°
2026-04-25 10:31 44.87674 -8.93475 38222 ft 456 kts 161°
2026-04-25 10:31 44.81744 -8.90313 38224 ft 456 kts 161°
2026-04-25 10:32 44.75806 -8.87175 38223 ft 455 kts 161°
2026-04-25 10:32 44.69869 -8.84045 38226 ft 455 kts 161°
2026-04-25 10:33 44.63933 -8.80922 38221 ft 455 kts 161°
2026-04-25 10:33 44.58005 -8.77810 38222 ft 455 kts 161°
2026-04-25 10:34 44.52081 -8.74706 38221 ft 454 kts 161°
2026-04-25 10:34 44.46159 -8.71610 38224 ft 454 kts 161°
2026-04-25 10:35 44.40271 -8.68539 38218 ft 454 kts 161°
2026-04-25 10:35 44.34392 -8.65479 38222 ft 454 kts 161°
2026-04-25 10:36 44.28471 -8.62404 38216 ft 454 kts 161°
2026-04-25 10:36 44.22552 -8.59336 38217 ft 453 kts 161°
2026-04-25 10:37 44.16631 -8.56274 38217 ft 453 kts 161°
2026-04-25 10:37 44.10715 -8.53221 38214 ft 453 kts 161°
2026-04-25 10:38 44.04804 -8.50177 38211 ft 453 kts 161°
2026-04-25 10:38 43.98897 -8.47141 38210 ft 452 kts 161°
2026-04-25 10:39 43.92990 -8.44113 38208 ft 452 kts 161°
2026-04-25 10:39 43.87090 -8.41094 38207 ft 452 kts 161°
2026-04-25 10:40 43.81225 -8.38099 38201 ft 452 kts 161°
2026-04-25 10:40 43.75324 -8.35092 38204 ft 451 kts 161°
2026-04-25 10:41 43.69433 -8.32096 38199 ft 451 kts 161°
2026-04-25 10:41 43.63540 -8.29106 38201 ft 451 kts 161°
2026-04-25 10:42 43.57649 -8.26123 38193 ft 451 kts 161°
2026-04-25 10:42 43.51764 -8.23149 38195 ft 451 kts 161°
2026-04-25 10:43 43.45872 -8.20178 38189 ft 451 kts 161°
2026-04-25 10:43 43.39980 -8.17214 38191 ft 450 kts 161°
2026-04-25 10:44 43.34097 -8.14260 38187 ft 450 kts 161°
2026-04-25 10:44 43.28214 -8.11311 38189 ft 450 kts 161°
2026-04-25 10:45 43.22335 -8.08372 38184 ft 449 kts 161°
2026-04-25 10:45 43.16458 -8.05439 38182 ft 449 kts 161°
2026-04-25 10:46 43.10593 -8.02518 38173 ft 449 kts 161°
2026-04-25 10:46 43.04724 -7.99600 38170 ft 448 kts 161°
2026-04-25 10:47 42.98895 -7.96709 38166 ft 448 kts 161°
2026-04-25 10:47 42.93032 -7.93808 38167 ft 448 kts 161°
2026-04-25 10:48 42.88124 -7.91383 38165 ft 448 kts 161°
2026-04-25 10:48 42.82266 -7.88494 38168 ft 448 kts 161°
2026-04-25 10:49 42.76409 -7.85613 38161 ft 447 kts 161°
2026-04-25 10:49 42.73484 -7.84174 38019 ft 447 kts 161°
2026-04-25 10:49 42.70555 -7.82736 37742 ft 445 kts 161°
2026-04-25 10:49 42.67684 -7.81331 37472 ft 443 kts 162°
2026-04-25 10:50 42.64675 -7.80233 37192 ft 442 kts 170°
2026-04-25 10:50 42.61657 -7.79760 36936 ft 442 kts 178°
2026-04-25 10:50 42.58579 -7.79882 36689 ft 442 kts 185°
2026-04-25 10:50 42.55550 -7.80605 36424 ft 443 kts 193°
2026-04-25 10:51 42.52584 -7.81749 36187 ft 443 kts 195°
2026-04-25 10:51 42.46636 -7.84015 36108 ft 445 kts 194°
2026-04-25 10:51 42.43658 -7.85130 35878 ft 443 kts 194°
2026-04-25 10:52 42.40685 -7.86240 35636 ft 443 kts 194°
2026-04-25 10:52 42.37714 -7.87348 35386 ft 443 kts 194°
2026-04-25 10:52 42.34742 -7.88456 35138 ft 442 kts 194°
2026-04-25 10:52 42.31774 -7.89562 34893 ft 442 kts 193°
2026-04-25 10:53 42.28813 -7.90664 34352 ft 442 kts 193°
2026-04-25 10:53 42.25843 -7.91770 33333 ft 445 kts 193°
2026-04-25 10:53 42.22836 -7.92886 31920 ft 451 kts 193°
2026-04-25 10:53 42.19805 -7.94011 30664 ft 450 kts 193°
2026-04-25 10:54 42.16797 -7.95127 29745 ft 446 kts 193°
2026-04-25 10:54 42.14822 -7.95858 29275 ft 443 kts 193°
2026-04-25 10:54 42.10913 -7.97305 28720 ft 427 kts 193°
2026-04-25 10:54 42.08068 -7.98356 28322 ft 420 kts 193°
2026-04-25 10:55 42.05256 -7.99391 27667 ft 418 kts 193°
2026-04-25 10:55 42.02465 -8.00418 27046 ft 413 kts 194°
2026-04-25 10:55 41.99705 -8.01435 26420 ft 409 kts 194°
2026-04-25 10:55 41.96970 -8.02443 25816 ft 405 kts 194°
2026-04-25 10:56 41.94263 -8.03439 25205 ft 402 kts 194°
2026-04-25 10:56 41.91574 -8.04424 24583 ft 399 kts 195°
2026-04-25 10:56 41.88907 -8.05401 23981 ft 396 kts 195°
2026-04-25 10:56 41.86258 -8.06370 23284 ft 393 kts 195°
2026-04-25 10:57 41.83646 -8.07333 22750 ft 386 kts 196°
2026-04-25 10:57 41.81134 -8.08527 22156 ft 380 kts 203°
2026-04-25 10:57 41.78811 -8.10067 21578 ft 375 kts 209°
2026-04-25 10:57 41.76561 -8.11788 21001 ft 370 kts 210°
2026-04-25 10:58 41.74331 -8.13480 20424 ft 367 kts 210°
2026-04-25 10:58 41.72044 -8.15202 19838 ft 390 kts 209°
2026-04-25 10:58 41.69562 -8.16776 19312 ft 396 kts 200°
2026-04-25 10:58 41.66985 -8.17951 19042 ft 385 kts 199°
2026-04-25 10:59 41.64467 -8.19116 18697 ft 382 kts 199°
2026-04-25 10:59 41.61945 -8.20282 18031 ft 383 kts 199°
2026-04-25 10:59 41.59444 -8.21434 17443 ft 376 kts 199°
2026-04-25 10:59 41.56996 -8.22560 16833 ft 369 kts 200°
2026-04-25 11:00 41.54586 -8.23665 16257 ft 363 kts 199°
2026-04-25 11:00 41.52210 -8.24749 15679 ft 357 kts 199°
2026-04-25 11:00 41.49884 -8.25811 15092 ft 352 kts 199°
2026-04-25 11:00 41.47578 -8.26861 14544 ft 346 kts 199°
2026-04-25 11:01 41.45304 -8.27893 13973 ft 343 kts 199°
2026-04-25 11:01 41.43063 -8.28915 13463 ft 336 kts 199°
2026-04-25 11:01 41.40904 -8.29901 13224 ft 322 kts 199°
2026-04-25 11:01 41.38800 -8.30857 12642 ft 318 kts 199°
2026-04-25 11:02 41.36712 -8.31805 11905 ft 314 kts 199°
2026-04-25 11:02 41.34673 -8.32736 11262 ft 305 kts 199°
2026-04-25 11:02 41.32691 -8.33637 10660 ft 296 kts 199°
2026-04-25 11:02 41.30768 -8.34509 10110 ft 288 kts 199°
2026-04-25 11:03 41.28926 -8.35335 9518 ft 279 kts 199°
2026-04-25 11:03 41.27106 -8.36165 8976 ft 275 kts 199°
2026-04-25 11:03 41.25317 -8.36968 8639 ft 266 kts 198°
2026-04-25 11:03 41.23554 -8.37759 8509 ft 272 kts 199°
2026-04-25 11:04 41.21753 -8.38581 8386 ft 274 kts 199°
2026-04-25 11:04 41.19948 -8.39405 8253 ft 273 kts 199°
2026-04-25 11:04 41.18151 -8.40216 8124 ft 272 kts 198°
2026-04-25 11:04 41.16939 -8.40760 8035 ft 272 kts 198°
2026-04-25 11:05 41.14559 -8.41830 7882 ft 273 kts 199°
2026-04-25 11:05 41.12767 -8.42639 7748 ft 272 kts 198°
2026-04-25 11:05 41.10974 -8.43437 7604 ft 273 kts 198°
2026-04-25 11:05 41.09180 -8.44241 7411 ft 266 kts 198°
2026-04-25 11:06 41.07464 -8.45021 7054 ft 257 kts 198°
2026-04-25 11:06 41.05780 -8.45781 6582 ft 252 kts 198°
2026-04-25 11:06 41.04172 -8.46502 6076 ft 238 kts 198°
2026-04-25 11:06 41.02607 -8.47200 5583 ft 239 kts 198°
2026-04-25 11:07 41.01089 -8.48089 5093 ft 239 kts 215°
2026-04-25 11:07 41.00033 -8.49737 4779 ft 237 kts 245°
2026-04-25 11:07 40.99625 -8.51851 4664 ft 239 kts 261°
2026-04-25 11:07 40.99383 -8.54015 4550 ft 234 kts 262°
2026-04-25 11:08 40.99143 -8.56085 4388 ft 222 kts 261°
2026-04-25 11:08 40.98885 -8.58068 4146 ft 211 kts 262°
2026-04-25 11:08 40.99012 -8.59901 3975 ft 194 kts 292°
2026-04-25 11:08 40.99772 -8.61274 3823 ft 180 kts 324°
2026-04-25 11:09 41.00859 -8.61908 3674 ft 165 kts 351°
2026-04-25 11:09 41.01957 -8.62122 3480 ft 154 kts 353°
2026-04-25 11:09 41.02990 -8.62347 3320 ft 157 kts 349°
2026-04-25 11:09 41.04116 -8.62637 3166 ft 168 kts 350°
2026-04-25 11:10 41.05241 -8.62936 3009 ft 160 kts 349°
2026-04-25 11:10 41.05951 -8.63139 2976 ft 157 kts 348°
2026-04-25 11:10 41.07424 -8.63565 3006 ft 162 kts 347°
2026-04-25 11:10 41.08530 -8.63871 3014 ft 159 kts 350°
2026-04-25 11:11 41.09616 -8.64149 3030 ft 161 kts 350°
2026-04-25 11:11 41.10725 -8.64436 2900 ft 162 kts 350°
2026-04-25 11:11 41.11809 -8.64701 2718 ft 154 kts 350°
2026-04-25 11:11 41.12819 -8.64938 2584 ft 143 kts 351°
2026-04-25 11:12 41.13794 -8.65187 2282 ft 149 kts 348°
2026-04-25 11:12 41.14806 -8.65527 1898 ft 149 kts 345°
2026-04-25 11:12 41.15780 -8.65848 1585 ft 140 kts 351°
2026-04-25 11:12 41.16715 -8.66082 1345 ft 136 kts 348°
2026-04-25 11:13 41.17669 -8.66318 1156 ft 139 kts 348°
2026-04-25 11:13 41.18609 -8.66514 965 ft 138 kts 348°
2026-04-25 11:13 41.19552 -8.66755 886 ft 140 kts 346°
2026-04-25 11:13 41.20497 -8.67003 791 ft 138 kts 345°
2026-04-25 11:14 41.21429 -8.67250 630 ft 137 kts 347°
2026-04-25 11:14 41.22386 -8.67488 463 ft 140 kts 347°
2026-04-25 11:14 41.23328 -8.67740 293 ft 141 kts 346°
2026-04-25 11:14 41.24206 -8.67971 226 ft 96 kts 349°
2026-04-25 11:15 41.24574 -8.68067 219 ft 24 kts 349°
2026-04-25 11:15 41.24768 -8.68114 212 ft 31 kts 349°
2026-04-25 11:15 41.24986 -8.68176 207 ft 34 kts 349°
2026-04-25 11:15 41.25215 -8.68130 189 ft 31 kts 18°
2026-04-25 11:16 41.25247 -8.68002 199 ft 6 kts 169°
2026-04-25 11:16 41.25194 -8.67989 200 ft 9 kts 171°
2026-04-25 11:16 41.25129 -8.67975 202 ft 9 kts 171°
2026-04-25 11:17 41.25069 -8.67963 206 ft 8 kts 171°
2026-04-25 11:17 41.25013 -8.67950 209 ft 8 kts 169°
2026-04-25 11:17 41.24919 -8.67924 207 ft 16 kts 168°
2026-04-25 11:17 41.24817 -8.67871 215 ft 15 kts 152°
2026-04-25 11:18 41.24730 -8.67824 219 ft 12 kts 165°
2026-04-25 11:18 41.24653 -8.67802 222 ft 11 kts 168°
2026-04-25 11:18 41.24575 -8.67780 227 ft 18 kts 168°
2026-04-25 11:18 41.24442 -8.67744 228 ft 19 kts 168°
2026-04-25 11:19 41.24320 -8.67704 239 ft 17 kts 158°
2026-04-25 11:19 41.24238 -8.67601 241 ft 16 kts 139°
2026-04-25 11:19 41.24112 -8.67553 242 ft 21 kts 169°
2026-04-25 11:19 41.23971 -8.67515 243 ft 20 kts 169°
2026-04-25 11:20 41.23848 -8.67483 243 ft 18 kts 169°
2026-04-25 11:20 41.23723 -8.67450 243 ft 18 kts 168°
2026-04-25 11:20 41.23595 -8.67415 243 ft 19 kts 168°
2026-04-25 11:20 41.23478 -8.67385 243 ft 15 kts 169°
2026-04-25 11:21 41.23413 -8.67338 245 ft 6 kts 108°
2026-04-25 11:21 41.23424 -8.67301 247 ft 2 kts 65°
2026-04-25 11:21 41.23429 -8.67291 248 ft 6 kts 59°
2026-04-25 11:21 41.23442 -8.67260 248 ft 0 kts 60°